EW3235 Weather Reports


Display with metric or nautical units.
time (UTC)temp
F
wind
direction
speed
MPH
gust
MPH
rain 1hr
in
rain 24hr
in
rain mn
in
humidity
%
barometer
mb
20180420220333 80 212 0.0 5.0 0.00 0.00 0.00 40 1019.5
20180420214800 80 200 0.0 3.0 0.00 0.00 0.00 41 1019.4
20180420213724 81 125 0.0 3.0 0.00 0.00 0.00 39 1019.3
20180420212151 81 148 0.0 3.0 0.00 0.00 0.00 36 1019.5
20180420210511 80 183 0.0 3.0 0.00 0.00 0.00 36 1019.5
20180420204837 80 136 0.0 3.0 0.00 0.00 0.00 35 1019.6
20180420203358 80 227 0.0 3.0 0.00 0.00 0.00 38 1019.7
20180420202137 79 167 0.0 2.0 0.00 0.00 0.00 36 1019.7
20180420200455 77 77 1.0 3.0 0.00 0.00 0.00 36 1020.1
20180420195227 77 50 1.0 4.0 0.00 0.00 0.00 37 1020.3
20180420193650 75 155 0.0 3.0 0.00 0.00 0.00 45 1020.5
20180420192927 74 101 1.0 5.0 0.00 0.00 0.00 44 1020.6
20180420190436 74 8 1.0 3.0 0.00 0.00 0.00 40 1020.9
20180420185206 72 166 0.0 2.0 0.00 0.00 0.00 44 1021.0
20180420183312 70 33 1.0 2.0 0.00 0.00 0.00 49 1021.2
20180420181841 70 260 0.0 1.0 0.00 0.00 0.00 50 1021.3
20180420180615 68 341 0.0 2.0 0.00 0.00 0.00 53 1021.4
20180420174829 65 95 1.0 4.0 0.00 0.00 0.00 58 1021.6
20180420173145 64 94 1.0 4.0 0.00 0.00 0.00 61 1021.7
20180420171700 62 51 0.0 3.0 0.00 0.00 0.00 62 1021.9
20180420170656 62 31 0.0 4.0 0.00 0.00 0.00 64 1021.9
20180420164803 59 32 0.0 4.0 0.00 0.00 0.00 67 1021.9
20180420164351 58 16 1.0 5.0 0.00 0.00 0.00 70 1022.0
20180420162054 55 328 1.0 5.0 0.00 0.00 0.00 75 1022.1
20180420160215 54 333 1.0 3.0 0.00 0.00 0.00 78 1022.1
20180420154946 52 323 1.0 4.0 0.00 0.00 0.00 80 1022.1
20180420151612 49 72 0.0 1.0 0.00 0.00 0.00 89 1021.9
20180420144606 44 3 0.0 0.0 0.00 0.00 0.00 91 1021.9
20180420143124 44 76 0.0 0.0 0.00 0.00 0.00 92 1021.8
20180420141552 42 77 0.0 1.0 0.00 0.00 0.00 91 1021.8
20180420140531 41 81 0.0 1.0 0.00 0.00 0.00 91 1021.7
20180420134530 39 91 0.0 0.0 0.00 0.00 0.00 91 1021.4
20180420134225 39 91 0.0 0.0 0.00 0.00 0.00 91 1021.4
20180420131930 39 91 0.0 0.0 0.00 0.00 0.00 92 1021.1
20180420130706 39 91 0.0 0.0 0.00 0.00 0.00 91 1021.1
20180420124614 40 90 0.0 0.0 0.00 0.00 0.00 91 1020.9
20180420124000 40 90 0.0 0.0 0.00 0.00 0.00 91 1020.9
20180420120017 40 91 0.0 0.0 0.00 0.00 0.00 92 1020.9
20180420114551 40 88 0.0 0.0 0.00 0.00 0.00 91 1020.8
20180420113113 40 89 0.0 0.0 0.00 0.00 0.00 91 1020.8
20180420111650 41 89 0.0 1.0 0.00 0.00 0.00 91 1020.7
20180420110010 41 80 0.0 0.0 0.00 0.00 0.00 91 1020.8
20180420104744 41 80 0.0 0.0 0.00 0.00 0.00 91 1020.5
20180420103000 41 80 0.0 0.0 0.00 0.00 0.00 91 1020.5
20180420101942 41 80 0.0 0.0 0.00 0.00 0.00 91 1020.5
20180420100000 41 80 0.0 0.0 0.00 0.00 0.00 91 1020.5
20180420094837 42 81 0.0 0.0 0.00 0.00 0.00 91 1020.5
20180420092943 42 82 0.0 1.0 0.00 0.00 0.00 91 1020.6
20180420091412 42 94 0.0 0.0 0.00 0.00 0.00 91 1020.5
20180420090657 42 94 0.0 0.0 0.00 0.00 0.00 91 1020.6
20180420084605 43 94 0.0 0.0 0.00 0.00 0.00 91 1020.6
20180420083545 43 94 0.0 0.0 0.00 0.00 0.00 91 1020.6
20180420081704 43 94 0.0 0.0 0.00 0.00 0.00 90 1020.6
20180420075924 44 94 0.0 1.0 0.00 0.00 0.00 90 1020.5
20180420074446 44 93 0.0 1.0 0.00 0.00 0.00 90 1020.5
20180420073015 44 94 0.0 0.0 0.00 0.00 0.00 89 1020.4
20180420072503 44 94 0.0 0.0 0.00 0.00 0.00 89 1020.4
20180420070109 46 94 0.0 1.0 0.00 0.00 0.00 89 1020.5
20180420064332 46 15 0.0 0.0 0.00 0.00 0.00 88 1020.4
20180420063609 46 15 0.0 0.0 0.00 0.00 0.00 88 1020.3
20180420061328 47 107 0.0 0.0 0.00 0.00 0.00 85 1020.3
20180420060055 48 106 0.0 0.0 0.00 0.00 0.00 84 1020.2
20180420055027 49 107 0.0 1.0 0.00 0.00 0.00 84 1020.1
20180420052934 50 77 0.0 1.0 0.00 0.00 0.00 83 1020.0
20180420051809 50 84 0.0 2.0 0.00 0.00 0.00 82 1020.1
20180420050238 51 97 0.0 1.0 0.00 0.00 0.00 79 1019.9
20180420044342 53 94 0.0 1.0 0.00 0.00 0.00 76 1019.6
20180420042810 54 134 0.0 1.0 0.00 0.00 0.00 72 1019.4
20180420041351 56 350 0.0 1.0 0.00 0.00 0.00 68 1019.0
20180420040001 58 350 0.0 1.0 0.00 0.00 0.00 64 1018.7
20180420034316 59 356 0.0 1.0 0.00 0.00 0.00 60 1018.5
20180420033054 60 181 0.0 4.0 0.00 0.00 0.00 57 1018.2
20180420031315 61 275 0.0 2.0 0.00 0.00 0.00 55 1018.0
20180420025739 63 61 0.0 6.0 0.00 0.00 0.00 52 1017.8
20180420024403 64 25 1.0 5.0 0.00 0.00 0.00 50 1017.7
20180420023032 65 251 1.0 6.0 0.00 0.00 0.00 48 1017.6
20180420021252 68 267 0.0 5.0 0.00 0.00 0.00 45 1017.4
20180420015924 69 291 1.0 6.0 0.00 0.00 0.00 42 1017.4
20180420013436 70 238 1.0 9.0 0.00 0.00 0.00 39 1017.1
20180420011233 72 328 0.0 8.0 0.00 0.00 0.00 38 1017.0
20180420005908 72 275 1.0 7.0 0.00 0.00 0.00 37 1017.0
20180420004423 73 276 0.0 5.0 0.00 0.00 0.00 36 1016.9
20180420002750 73 301 0.0 5.0 0.00 0.00 0.00 38 1016.9
20180420001839 72 259 2.0 9.0 0.00 0.00 0.00 36 1016.9
20180420000300 72 229 1.0 7.0 0.00 0.00 0.00 35 1016.9
20180419234207 72 264 4.0 10.0 0.00 0.00 0.00 33 1016.9
20180419232835 73 314 1.0 6.0 0.00 0.00 0.00 35 1016.9
20180419231200 72 299 1.0 8.0 0.00 0.00 0.00 34 1016.9
20180419225726 73 50 0.0 5.0 0.00 0.00 0.00 33 1016.8
20180419224146 72 191 3.0 9.0 0.00 0.00 0.00 34 1017.0
20180419222919 72 158 0.0 4.0 0.00 0.00 0.00 34 1016.9